Weather History for Andrews, NC

Change the Weather History Date:

Monday, October 7, 2013

  Actual Average (KTYS) Record (KTYS)
Temperature  
Mean Temperature 58 °F 63 °F  
Max Temperature 68 °F 74 °F 91 °F (1884)
Min Temperature 48 °F 52 °F 34 °F (1985)
Degree Days  
Heating Degree Days 7 4  
Month to date heating degree days 23  
Since 1 July heating degree days 46  
Cooling Degree Days 0 2  
Month to date cooling degree days 16  
Year to date cooling degree days 1503  
Growing Degree Days 8 (Base 50)    
Moisture  
Dew Point 50 °F    
Average Humidity 76    
Maximum Humidity 98    
Minimum Humidity 52    
Precipitation  
Precipitation 0.00 in 0.08 in 2.07 in (1955)
Month to date precipitation 0.60  
Year to date precipitation 37.44  
Snow  
Snow 0.00 in 0.00 in - ()
Month to date snowfall 0.0  
Since 1 July snowfall 0.0  
Since 1 September snowfall 0.0  
Snow Depth -    
Sea Level Pressure  
Sea Level Pressure 30.00 in    
Wind  
Wind Speed 6 mph (NNE)    
Max Wind Speed 12 mph    
Max Gust Speed 16 mph    
Visibility 10 miles    
Events      
T = Trace of Precipitation, MM = Missing Value Source: NWS Daily Summary

Daily Weather History Graph

Daily Weather History Graph

Search for Another Location

Airport:

Trip Planner

Search our weather history database for the weather conditions in past years. The results will help you decide how hot, cold, wet, or windy it might be!

Date:

Astronomy

Oct. 07, 2013 Rise Set
Actual Time 7:35 AM EDT 7:10 PM EDT
Civil Twilight 7:09 AM EDT 7:35 PM EDT
Nautical Twilight 6:40 AM EDT 8:05 PM EDT
Astronomical Twilight 6:10 AM EDT 8:34 PM EDT
Moon 10:17 AM EDT (10/7) 9:02 PM EDT (10/7)
Length of Visible Light 12h 26m
Length of Day
11h 35m
Waxing Crescent, 8% of the Moon is Illuminated
Oct 7
Waxing Crescent
Oct 11
First Quarter
Oct 18
Full
Oct 26
Last Quarter
Nov 3
New

Hourly Weather History & Observations

Time (EDT) Temp. Dew Point Humidity Pressure Visibility Wind Dir Wind Speed Gust Speed Precip Events Conditions
3:35 PM 68.4 °F 50.0 °F 52% 29.94 in 10.0 mi NNW 8.1 mph - N/A   Clear
3:55 PM 67.3 °F 50.4 °F 55% 29.94 in 10.0 mi North 8.1 mph - N/A   Clear
4:15 PM 67.3 °F 51.1 °F 56% 29.94 in 10.0 mi North 9.2 mph - N/A   Clear
4:35 PM 66.7 °F 50.2 °F 55% 29.94 in 10.0 mi North 10.4 mph 16.1 mph N/A   Clear
4:55 PM 66.6 °F 50.7 °F 57% 29.95 in 10.0 mi North 8.1 mph - N/A   Clear
5:15 PM 67.1 °F 51.4 °F 57% 29.95 in 10.0 mi NNE 11.5 mph 16.1 mph N/A   Clear
5:35 PM 65.8 °F 49.1 °F 55% 29.95 in 10.0 mi North 9.2 mph - N/A   Clear
5:55 PM 65.3 °F 50.2 °F 58% 29.95 in 10.0 mi NNE 4.6 mph - N/A   Clear
6:15 PM 64.0 °F 50.7 °F 62% 29.96 in 10.0 mi NNE 5.8 mph - N/A   Clear
6:35 PM 62.8 °F 49.8 °F 63% 29.97 in 10.0 mi NE 8.1 mph - N/A   Clear
6:55 PM 61.5 °F 48.9 °F 63% 29.97 in 10.0 mi NNE 5.8 mph - N/A   Clear
7:15 PM 58.6 °F 50.2 °F 73% 29.98 in 10.0 mi Calm Calm - N/A   Clear
7:35 PM 58.1 °F 49.8 °F 74% 29.99 in 10.0 mi Calm Calm - N/A   Clear
7:55 PM 55.2 °F 50.2 °F 83% 30.00 in 10.0 mi Calm Calm - N/A   Clear
8:15 PM 53.1 °F 50.2 °F 90% 30.01 in 10.0 mi Calm Calm - N/A   Clear
8:35 PM 52.9 °F 49.6 °F 89% 30.01 in 10.0 mi ENE 3.5 mph - N/A   Clear
8:55 PM 52.3 °F 49.6 °F 91% 30.02 in 10.0 mi Calm Calm - N/A   Clear
9:15 PM 52.5 °F 49.8 °F 91% 30.03 in 10.0 mi NE 4.6 mph - N/A   Clear
9:35 PM 51.4 °F 49.3 °F 92% 30.04 in 10.0 mi NE 5.8 mph - N/A   Clear
9:55 PM 52.3 °F 49.8 °F 91% 30.04 in 10.0 mi NE 3.5 mph - N/A   Clear
10:15 PM 51.3 °F 49.3 °F 93% 30.05 in 10.0 mi NE 3.5 mph - N/A   Clear
10:35 PM 51.1 °F 48.9 °F 92% 30.05 in 10.0 mi ENE 3.5 mph - N/A   Clear
10:55 PM 50.0 °F 48.6 °F 95% 30.05 in 10.0 mi Calm Calm - N/A   Clear
11:15 PM 49.3 °F 48.4 °F 97% 30.05 in 10.0 mi Calm Calm - N/A   Clear
11:35 PM 48.9 °F 47.7 °F 95% 30.05 in 10.0 mi Calm Calm - N/A   Clear
11:55 PM 48.7 °F 48.2 °F 98% 30.06 in 10.0 mi Calm Calm - N/A   Clear